This demonstration page uses our WeatherBlox Daily Observations layout. Learn more.

Left ArrowRight Arrow

38.89511, -77.03637

Hourly Observations for June 26, 2022

Temp ( °F °C ) Dew Point ( °F °C ) Humidity (%) Winds ( mph kmh ) Pressure ( in mb ) Visibility ( mi km ) Precip ( " mm )
12:52 am 00:52 Partly Cloudy 76 24.4 66 18.9 72 72 S 13 20 30.12 1020 10 16 0.00 0.00
1:52 am 01:52 Partly Cloudy 74 23.3 63 17.2 69 69 SSW 10 17 30.14 1021 10 16 0.00 0.00
2:52 am 02:52 Mostly Cloudy 74 23.3 64 17.8 71 71 S 12 19 30.13 1020 10 16 0.00 0.00
3:52 am 03:52 Mostly Cloudy 73 22.8 63 17.2 71 71 S 10 17 30.13 1020 10 16 0.00 0.00
4:52 am 04:52 Partly Cloudy 73 22.8 63 17.2 71 71 SSW 8 13 30.13 1020 10 16 0.00 0.00
5:52 am 05:52 Mostly Cloudy 72 22.2 63 17.2 73 73 S 9 15 30.13 1020 10 16 0.00 0.00
6:52 am 06:52 Mostly Cloudy 73 22.8 63 17.2 71 71 S 7 11 30.14 1021 10 16 0.00 0.00
7:52 am 07:52 Mostly Cloudy 74 23.3 64 17.8 71 71 S 9 15 30.14 1021 10 16 0.00 0.00
8:52 am 08:52 Mostly Sunny 76 24.4 65 18.3 69 69 S 10 17 30.12 1020 10 16 0.00 0.00
9:52 am 09:52 Partly Cloudy 79 26.1 66 18.9 65 65 S 14 22 30.11 1020 10 16 0.00 0.00
10:52 am 10:52 Partly Cloudy 81 27.2 67 19.4 62 62 SSE 12 19 30.10 1019 10 16 0.00 0.00
11:52 am 11:52 Partly Cloudy 84 28.9 68 20 59 59 SSE 14 22 30.09 1019 10 16 0.00 0.00
12:52 pm 12:52 Mostly Sunny 86 30 67 19.4 53 53 S 16 26 30.08 1019 10 16 0.00 0.00
1:52 pm 13:52 Mostly Sunny 87 30.6 69 20.6 55 55 S 14 22 30.06 1018 10 16 0.00 0.00
2:52 pm 14:52 Partly Cloudy 88 31.1 67 19.4 50 50 S 15 24 30.04 1017 10 16 0.00 0.00
3:52 pm 15:52 Partly Cloudy 88 31.1 68 20 52 52 S 16 26 30.03 1017 9 14 0.00 0.00
4:52 pm 16:52 Mostly Cloudy 87 30.6 68 20 53 53 S 15 24 30.02 1017 10 16 0.00 0.00
5:52 pm 17:52 Mostly Cloudy 86 30 68 20 55 55 S 15 24 30.01 1016 10 16 0.00 0.00
6:47 pm 18:47 Mostly Cloudy 84 29 66 19 55 55 W 16 26 30.01 1016 10 16 0.00 0.00
6:52 pm 18:52 Mostly Cloudy 85 29.4 65 18.3 51 51 W 12 19 30.01 1016 10 16 0.00 0.00
6:54 pm 18:54 Mostly Cloudy 85 29.4 65 18.3 51 51 WSW 13 20 30.01 1016 10 16 0.00 0.00
7:52 pm 19:52 Mostly Cloudy 82 27.8 64 17.8 55 55 WSW 16 26 30.01 1016 10 16 0.00 0.00
8:52 pm 20:52 Mostly Cloudy 80 26.7 67 19.4 64 64 SSW 5 7 30.01 1016 10 16 0.00 0.00
9:52 pm 21:52 Mostly Cloudy 79 26.1 67 19.4 67 67 SSW 9 15 30.03 1017 10 16 0.00 0.00
10:52 pm 22:52 Mostly Cloudy 78 25.6 69 20.6 74 74 S 8 13 30.03 1017 10 16 0.00 0.00
11:52 pm 23:52 Partly Cloudy 78 25.6 68 20 71 71 S 12 19 30.02 1017 10 16 0.00 0.00

Powered by AerisWeather